Regional Weather Roundup
Issued by NWS

Home | Current Version | Previous Version | Graphics & Text | Print | Product List | Glossary On
Versions: 1 2 3 4 5 6 7 8 9 10 11 12 13 14 15 16 17 18 19 20 21 22 23 24 25 26 27 28 29 30 31 32 33 34 35 36 37 38 39 40 41 42 43 44 45 46 47 48 49 50
915
ASUS45 KCYS 291710
RWRWY

WYOMING REGIONAL WEATHER ROUNDUP
NATIONAL WEATHER SERVICE CHEYENNE WY
1100 AM MDT WED MAR 29 2017

NOTE:  "FAIR" INDICATES FEW OR NO CLOUDS BELOW 12,000 FEET
WITH NO SIGNIFICANT WEATHER AND/OR OBSTRUCTIONS TO VISIBILITY.

WYZ001-291800-
YELLOWSTONE NATIONAL PARK

CITY           SKY/WX    TMP DP  RH WIND       PRES   REMARKS
LK YELLOWSTONE   N/A     32  24  72 VRB5      30.17F WCI  27
W YELLOWSTONE  NOT AVBL

$$
WYZ002>013-054>058-071-098>099-291800-
NORTHERN WYOMING

CITY           SKY/WX    TMP DP  RH WIND       PRES   REMARKS
JACKSON        SUNNY     34  25  69 CALM      30.21F
CODY           FAIR      51  23  33 SW14G21   30.08F
GREYBULL       FAIR      49  33  54 SE9       30.10F
WORLAND        FAIR      47  36  65 CALM      30.11F
SHERIDAN       FAIR      50  37  61 NE6       30.09S
BUFFALO        FAIR      54  24  31 SE9       30.09F
GILLETTE         N/A     51  31  46 W5        30.08S
HULETT         FAIR      46  37  71 SW6       30.10S
NEWCASTLE      PTSUNNY   45  36  70 CALM      30.11F

$$
WYZ014>020-022>026-101>103-291800-
CENTRAL WYOMING

CITY           SKY/WX    TMP DP  RH WIND       PRES   REMARKS
BIG PINEY      FAIR      41  21  44 NW6       30.21S
PINEDALE       FAIR      37  23  56 N7        30.21S WCI  32
DUBOIS         FAIR      37  19  48 N15G22    30.13S WCI  28
LANDER         FAIR      47  33  58 E6        30.13S
RIVERTON       FAIR      43  30  60 VRB5      30.14F
CASPER         FAIR      47  32  56 SW10G21   30.12F
DOUGLAS        FAIR      50  33  52 NW16      30.11F

$$
WYZ021-027>030-104>119-291800-
SOUTHERN WYOMING

CITY           SKY/WX    TMP DP  RH WIND       PRES   REMARKS
EVANSTON       FAIR      38  22  52 W10       30.24S WCI  31
KEMMERER         N/A     34  25  69 W13       30.24R WCI  25
ROCK SPRINGS   FAIR      36  26  67 SW12      30.21S WCI  28
DIXON            N/A     41  29  63 W7        30.22S
RAWLINS        PTSUNNY   39  29  67 SW13      30.18S WCI  31
SARATOGA       FAIR      41  30  65 NW5       30.18S
LARAMIE        CLOUDY    40  31  70 N13       30.13S WCI  32
CHEYENNE       PTSUNNY   42  30  62 NW14G23   30.10S
TORRINGTON     PTSUNNY   47  38  71 N7        30.09F
PINE BLUFFS    CLOUDY    41  36  81 N13       30.11F

$$




USA.gov is the U.S. government's official web portal to all federal, state and local government web resources and services.